Location: Rounton
(54.4000°N, 1.3500°W)
Time: 06:15:22
(UTC+01:00)

deb Agena D - Pass Details

Date: 15 June 2023
Orbit: 996 x 1023 km, 100.1° (Epoch: 29 September)

Event Time Altitude Azimuth Distance (km) Brightness Sun altitude
Exits shadow 01:48:22 15° 189° (S) 2,393 ? -11.8°
Maximum altitude 01:53:18 48° 260° (W) 1,284 ? -11.6°
Drops below altitude 10° 01:59:19 10° 334° (NNW) 2,778 ? -11.5°
Sets 02:01:54 0° 340° (NNW) 3,731 ? -11.4°
